,,,PA_Meas_PMT16A,,PR_Meas_QMR101_102,,RH_Meas_QMH101,,SR_Meas_QMS101,,TA_Meas_QMH101,,GenWind,,GenWind,
date,time,status,PA,status,PR,status,RH,status,SR,status,TA,status,DirAvg,status,SpdAvg,
2012-04-27, 00:00:04,VALID,1005.51,VALID,0,VALID,90.0208,VALID,0.0815089,VALID,25.1618,VALID,357,VALID,0.573047,
2012-04-27, 00:01:04,VALID,1005.53,VALID,0,VALID,90.2802,VALID,0,VALID,25.1637,VALID,357,VALID,0.553125,
2012-04-27, 00:02:04,VALID,1005.5,VALID,0,VALID,90.4709,VALID,0.0815089,VALID,25.1034,VALID,357,VALID,0.415625,
2012-04-27, 00:03:04,VALID,1005.5,VALID,0,VALID,90.5777,VALID,0.0815089,VALID,25.0839,VALID,357,VALID,0.460938,
2012-04-27, 00:04:04,VALID,1005.47,VALID,0,VALID,90.7226,VALID,0.0815089,VALID,25.0644,VALID,357,VALID,0.484375,
2012-04-27, 00:05:04,VALID,1005.43,VALID,0,VALID,90.8371,VALID,0,VALID,25.0255,VALID,357,VALID,0.523828,
2012-04-27, 00:06:04,VALID,1005.42,VALID,0,VALID,90.8981,VALID,0,VALID,25.006,VALID,357,VALID,0.619922,
2012-04-27, 00:07:04,VALID,1005.38,VALID,0,VALID,90.9897,VALID,0.0815089,VALID,24.9866,VALID,357,VALID,0.659766,
2012-04-27, 00:08:04,VALID,1005.39,VALID,0,VALID,91.0659,VALID,0,VALID,24.9671,VALID,357,VALID,0.764844,
2012-04-27, 00:09:04,VALID,1005.38,VALID,0,VALID,91.0659,VALID,0,VALID,24.9495,VALID,357,VALID,0.672266,
2012-04-27, 00:10:04,VALID,1005.39,VALID,0,VALID,91.1346,VALID,0,VALID,24.9282,VALID,357,VALID,0.646094,
2012-04-27, 00:11:04,VALID,1005.37,VALID,0,VALID,91.2719,VALID,0,VALID,24.9106,VALID,357,VALID,0.595312,
2012-04-27, 00:12:04,VALID,1005.4,VALID,0,VALID,91.4474,VALID,0,VALID,24.9106,VALID,357,VALID,0.593359,
2012-04-27, 00:13:04,VALID,1005.39,VALID,0,VALID,91.5695,VALID,0,VALID,24.8911,VALID,357,VALID,0.538281,
2012-04-27, 00:14:04,VALID,1005.4,VALID,0,VALID,91.6686,VALID,0,VALID,24.8308,VALID,357,VALID,0.541406,
2012-04-27, 00:15:04,VALID,1005.36,VALID,0,VALID,91.6839,VALID,0,VALID,24.8327,VALID,357,VALID,0.417578,
2012-04-27, 00:16:04,VALID,1005.35,VALID,0,VALID,91.7831,VALID,0,VALID,24.8327,VALID,357,VALID,0.442187,
2012-04-27, 00:17:04,VALID,1005.33,VALID,0,VALID,91.8136,VALID,0,VALID,24.8113,VALID,353,VALID,0.426953,
2012-04-27, 00:18:04,VALID,1005.3,VALID,0,VALID,91.8517,VALID,0,VALID,24.8132,VALID,353,VALID,0.484375,
2012-04-27, 00:19:04,VALID,1005.29,VALID,0,VALID,91.8899,VALID,0,VALID,24.8132,VALID,353,VALID,0.478906,
2012-04-27, 00:20:04,VALID,1005.29,VALID,0,VALID,91.8899,VALID,0,VALID,24.8132,VALID,353,VALID,0.346875,
2012-04-27, 00:21:04,VALID,1005.28,VALID,0,VALID,91.9128,VALID,0,VALID,24.8132,VALID,353,VALID,0.234375,
2012-04-27, 00:22:04,VALID,1005.25,VALID,0,VALID,91.8746,VALID,0,VALID,24.8132,VALID,353,VALID,0.332422,
2012-04-27, 00:23:04,VALID,1005.28,VALID,0,VALID,91.8365,VALID,0,VALID,24.8346,VALID,353,VALID,0.131641,
2012-04-27, 00:24:04,VALID,1005.25,VALID,0,VALID,91.7983,VALID,0,VALID,24.8113,VALID,353,VALID,0,
2012-04-27, 00:25:04,VALID,1005.24,VALID,0,VALID,91.7678,VALID,0,VALID,24.7919,VALID,353,VALID,0,
2012-04-27, 00:26:04,VALID,1005.25,VALID,0,VALID,91.7831,VALID,0,VALID,24.8132,VALID,353,VALID,0,
2012-04-27, 00:27:04,VALID,1005.23,VALID,0,VALID,91.7525,VALID,0,VALID,24.8327,VALID,353,VALID,0,
2012-04-27, 00:28:04,VALID,1005.23,VALID,0,VALID,91.7144,VALID,0,VALID,24.8113,VALID,353,VALID,0,
2012-04-27, 00:29:04,VALID,1005.18,VALID,0,VALID,91.6534,VALID,0,VALID,24.8522,VALID,353,VALID,0,
2012-04-27, 00:30:04,VALID,1005.18,VALID,0,VALID,91.6,VALID,0,VALID,24.8327,VALID,353,VALID,0,
2012-04-27, 00:31:04,VALID,1005.15,VALID,0,VALID,91.5237,VALID,0,VALID,24.8132,VALID,353,VALID,0,
2012-04-27, 00:32:04,VALID,1005.16,VALID,0,VALID,91.5161,VALID,0,VALID,24.8132,VALID,353,VALID,0,
2012-04-27, 00:33:04,VALID,1005.15,VALID,0,VALID,91.5084,VALID,0,VALID,24.8346,VALID,353,VALID,0,
2012-04-27, 00:34:04,VALID,1005.16,VALID,0,VALID,91.5161,VALID,0,VALID,24.7937,VALID,353,VALID,0,
2012-04-27, 00:35:04,VALID,1005.12,VALID,0,VALID,91.5542,VALID,0,VALID,24.7724,VALID,353,VALID,0,
2012-04-27, 00:36:04,VALID,1005.12,VALID,0,VALID,91.6839,VALID,0,VALID,24.8132,VALID,353,VALID,0,
2012-04-27, 00:37:04,VALID,1005.11,VALID,0,VALID,91.7449,VALID,0,VALID,24.7937,VALID,353,VALID,0,
2012-04-27, 00:38:04,VALID,1005.08,VALID,0,VALID,91.7602,VALID,0,VALID,24.7529,VALID,353,VALID,0,
2012-04-27, 00:39:04,VALID,1005.11,VALID,0,VALID,91.8059,VALID,0,VALID,24.7937,VALID,353,VALID,0.217578,
2012-04-27, 00:40:04,VALID,1005.05,VALID,0,VALID,91.7907,VALID,0,VALID,24.7743,VALID,353,VALID,0.350391,
2012-04-27, 00:41:04,VALID,1005.05,VALID,0,VALID,91.867,VALID,0,VALID,24.7335,VALID,353,VALID,0.453906,
2012-04-27, 00:42:04,VALID,1005.02,VALID,0,VALID,91.9204,VALID,0,VALID,24.7335,VALID,353,VALID,0.80625,
2012-04-27, 00:43:04,VALID,1005.01,VALID,0,VALID,92.0348,VALID,0,VALID,24.7159,VALID,353,VALID,0.616406,
2012-04-27, 00:44:04,VALID,1005.01,VALID,0,VALID,92.1264,VALID,0,VALID,24.6769,VALID,353,VALID,0.636328,
2012-04-27, 00:45:04,VALID,1004.98,VALID,0,VALID,92.2332,VALID,0,VALID,24.6574,VALID,354,VALID,0.698828,
2012-04-27, 00:46:04,VALID,1004.98,VALID,0,VALID,92.3629,VALID,0,VALID,24.638,VALID,354,VALID,0.805078,
2012-04-27, 00:47:04,VALID,1005,VALID,0,VALID,92.4925,VALID,0,VALID,24.599,VALID,354,VALID,0.556641,
2012-04-27, 00:48:04,VALID,1005.01,VALID,0,VALID,92.5841,VALID,0,VALID,24.5777,VALID,354,VALID,0.632422,
2012-04-27, 00:49:04,VALID,1005,VALID,0,VALID,92.6528,VALID,0,VALID,24.5582,VALID,354,VALID,0.371094,
2012-04-27, 00:50:04,VALID,1005.01,VALID,0,VALID,92.6756,VALID,0,VALID,24.5796,VALID,354,VALID,0.443359,
2012-04-27, 00:51:04,VALID,1004.98,VALID,0,VALID,92.7062,VALID,0,VALID,24.5796,VALID,354,VALID,0.542188,
2012-04-27, 00:52:04,VALID,1005,VALID,0,VALID,92.7443,VALID,0,VALID,24.5601,VALID,354,VALID,0.523828,
2012-04-27, 00:53:04,VALID,1004.99,VALID,0,VALID,92.7519,VALID,0,VALID,24.5582,VALID,354,VALID,0.586328,
2012-04-27, 00:54:04,VALID,1005.02,VALID,0,VALID,92.7596,VALID,0.0815089,VALID,24.5796,VALID,354,VALID,0.571875,
2012-04-27, 00:55:04,VALID,1005.05,VALID,0,VALID,92.8282,VALID,0,VALID,24.5388,VALID,354,VALID,0.640234,
2012-04-27, 00:56:04,VALID,1005.02,VALID,0,VALID,92.8282,VALID,0,VALID,24.5796,VALID,354,VALID,0.60625,
2012-04-27, 00:57:04,VALID,1005.03,VALID,0,VALID,92.8435,VALID,0.0815089,VALID,24.5796,VALID,354,VALID,0.585156,
2012-04-27, 00:58:04,VALID,1005.04,VALID,0,VALID,92.874,VALID,0,VALID,24.5777,VALID,354,VALID,0.408984,
2012-04-27, 00:59:04,VALID,1005.05,VALID,0,VALID,92.8358,VALID,0,VALID,24.5777,VALID,354,VALID,0.556641,
2012-04-27, 01:00:04,VALID,1005.05,VALID,0,VALID,92.8587,VALID,0.0815089,VALID,24.6185,VALID,354,VALID,0.498437,
2012-04-27, 01:01:04,VALID,1005.07,VALID,0,VALID,92.8664,VALID,0,VALID,24.6166,VALID,354,VALID,0.680469,
2012-04-27, 01:02:04,VALID,1005.06,VALID,0,VALID,92.7748,VALID,0,VALID,24.6185,VALID,354,VALID,0.620703,
2012-04-27, 01:03:04,VALID,1005.02,VALID,0,VALID,92.7138,VALID,0,VALID,24.5972,VALID,354,VALID,0.395703,
2012-04-27, 01:04:04,VALID,1005.02,VALID,0,VALID,92.7062,VALID,0,VALID,24.638,VALID,354,VALID,0.545313,
2012-04-27, 01:05:04,VALID,1004.98,VALID,0,VALID,92.6909,VALID,0,VALID,24.6361,VALID,355,VALID,0.643359,
2012-04-27, 01:06:04,VALID,1005,VALID,0,VALID,92.5917,VALID,0,VALID,24.6361,VALID,354,VALID,0.502734,
2012-04-27, 01:07:04,VALID,1004.98,VALID,0,VALID,92.4239,VALID,0.0815089,VALID,24.7159,VALID,354,VALID,0.344141,
2012-04-27, 01:08:04,VALID,1005,VALID,0,VALID,92.3476,VALID,0,VALID,24.7353,VALID,354,VALID,0,
2012-04-27, 01:09:04,VALID,1004.96,VALID,0,VALID,92.2561,VALID,0,VALID,24.7743,VALID,354,VALID,0.164844,
2012-04-27, 01:10:04,VALID,1004.97,VALID,0,VALID,92.1035,VALID,0,VALID,24.7937,VALID,354,VALID,0.059375,
2012-04-27, 01:11:04,VALID,1004.99,VALID,0,VALID,91.989,VALID,0,VALID,24.8113,VALID,354,VALID,0,
2012-04-27, 01:12:04,VALID,1004.99,VALID,0,VALID,91.9128,VALID,0,VALID,24.8113,VALID,354,VALID,0,
2012-04-27, 01:13:04,VALID,1004.98,VALID,0,VALID,91.928,VALID,0,VALID,24.8522,VALID,354,VALID,0,
2012-04-27, 01:14:04,VALID,1004.98,VALID,0,VALID,91.928,VALID,0,VALID,24.8697,VALID,355,VALID,0,
2012-04-27, 01:15:04,VALID,1004.97,VALID,0,VALID,91.7525,VALID,0,VALID,24.8911,VALID,355,VALID,0,
2012-04-27, 01:16:04,VALID,1004.98,VALID,0,VALID,91.8746,VALID,0,VALID,24.9106,VALID,354,VALID,0,
2012-04-27, 01:17:04,VALID,1004.97,VALID,0,VALID,91.9585,VALID,0,VALID,24.9282,VALID,354,VALID,0,
2012-04-27, 01:18:04,VALID,1004.95,VALID,0,VALID,91.9433,VALID,0,VALID,24.9087,VALID,355,VALID,0,
2012-04-27, 01:19:04,VALID,1004.96,VALID,0,VALID,91.8441,VALID,0,VALID,24.9282,VALID,355,VALID,0,
2012-04-27, 01:20:04,VALID,1004.93,VALID,0,VALID,91.8212,VALID,0,VALID,24.9087,VALID,354,VALID,0,
2012-04-27, 01:21:04,VALID,1004.94,VALID,0,VALID,91.8899,VALID,0,VALID,24.9495,VALID,354,VALID,0,
2012-04-27, 01:22:04,VALID,1004.96,VALID,0,VALID,91.8899,VALID,0,VALID,24.9495,VALID,354,VALID,0,
2012-04-27, 01:23:04,VALID,1004.95,VALID,0,VALID,91.8441,VALID,0,VALID,24.9495,VALID,354,VALID,0,
2012-04-27, 01:24:04,VALID,1004.93,VALID,0,VALID,91.8136,VALID,0,VALID,24.9282,VALID,354,VALID,0.349219,
2012-04-27, 01:25:04,VALID,1004.91,VALID,0,VALID,91.8822,VALID,0,VALID,24.9282,VALID,354,VALID,0.517578,
2012-04-27, 01:26:04,VALID,1004.91,VALID,0,VALID,91.8899,VALID,0,VALID,24.9087,VALID,354,VALID,0.416797,
2012-04-27, 01:27:04,VALID,1004.87,VALID,0,VALID,91.928,VALID,0,VALID,24.93,VALID,355,VALID,0.362109,
2012-04-27, 01:28:04,VALID,1004.87,VALID,0,VALID,91.8899,VALID,0,VALID,24.9106,VALID,354,VALID,0.208594,
2012-04-27, 01:29:04,VALID,1004.87,VALID,0,VALID,91.928,VALID,0,VALID,24.9087,VALID,354,VALID,0,
2012-04-27, 01:30:04,VALID,1004.84,VALID,0,VALID,91.9662,VALID,0,VALID,24.9087,VALID,354,VALID,0,
2012-04-27, 01:31:04,VALID,1004.85,VALID,0,VALID,92.0958,VALID,0,VALID,24.9319,VALID,354,VALID,0.214062,
2012-04-27, 01:32:04,VALID,1004.89,VALID,0,VALID,91.9967,VALID,0,VALID,24.9087,VALID,354,VALID,0.532422,
2012-04-27, 01:33:04,VALID,1004.9,VALID,0,VALID,92.0119,VALID,0,VALID,24.9282,VALID,354,VALID,0.73125,
2012-04-27, 01:34:04,VALID,1004.93,VALID,0,VALID,91.8899,VALID,0,VALID,24.969,VALID,334,VALID,0.310937,
2012-04-27, 01:35:04,VALID,1004.86,VALID,0,VALID,91.8746,VALID,0,VALID,24.9885,VALID,335,VALID,0,
2012-04-27, 01:36:04,VALID,1004.83,VALID,0,VALID,90.6769,VALID,0,VALID,24.9885,VALID,29,VALID,1.02422,
2012-04-27, 01:37:04,VALID,1004.86,VALID,0,VALID,89.9445,VALID,0,VALID,25.045,VALID,315,VALID,1.34297,
2012-04-27, 01:38:04,VALID,1004.87,VALID,0,VALID,88.5408,VALID,0,VALID,25.1832,VALID,311,VALID,0.710938,
2012-04-27, 01:39:04,VALID,1004.82,VALID,0,VALID,87.2134,VALID,0,VALID,25.2806,VALID,306,VALID,1.50039,
2012-04-27, 01:40:04,VALID,1004.82,VALID,0,VALID,86.1682,VALID,0,VALID,25.376,VALID,244,VALID,1.66289,
2012-04-27, 01:41:04,VALID,1004.8,VALID,0,VALID,85.3672,VALID,0,VALID,25.4928,VALID,207,VALID,0.631641,
2012-04-27, 01:42:04,VALID,1004.76,VALID,0,VALID,85.0544,VALID,0,VALID,25.5727,VALID,1,VALID,1.83125,
2012-04-27, 01:43:04,VALID,1004.79,VALID,0,VALID,84.9781,VALID,0,VALID,25.6311,VALID,76,VALID,0.747266,
2012-04-27, 01:44:04,VALID,1004.79,VALID,0,VALID,85.5045,VALID,0,VALID,25.6311,VALID,283,VALID,1.6293,
2012-04-27, 01:45:04,VALID,1004.78,VALID,0,VALID,85.7181,VALID,0,VALID,25.5902,VALID,316,VALID,1.02188,
2012-04-27, 01:46:04,VALID,1004.74,VALID,0,VALID,85.6952,VALID,0,VALID,25.5337,VALID,316,VALID,0.585156,
2012-04-27, 01:47:04,VALID,1004.7,VALID,0,VALID,86.0538,VALID,0,VALID,25.4928,VALID,292,VALID,0.661328,
2012-04-27, 01:48:04,VALID,1004.76,VALID,0,VALID,85.9775,VALID,0,VALID,25.4558,VALID,287,VALID,1.23516,
2012-04-27, 01:49:04,VALID,1004.69,VALID,0,VALID,85.6723,VALID,0,VALID,25.3955,VALID,288,VALID,0.56875,
2012-04-27, 01:50:04,VALID,1004.67,VALID,0,VALID,86.0309,VALID,0,VALID,25.3565,VALID,282,VALID,0.498828,
2012-04-27, 01:51:04,VALID,1004.63,VALID,0,VALID,86.0843,VALID,0,VALID,25.337,VALID,339,VALID,0.4875,
2012-04-27, 01:52:04,VALID,1004.64,VALID,0,VALID,85.8783,VALID,0,VALID,25.2981,VALID,280,VALID,0.649609,
2012-04-27, 01:53:04,VALID,1004.61,VALID,0,VALID,85.5503,VALID,0,VALID,25.2786,VALID,316,VALID,0.751172,
2012-04-27, 01:54:04,VALID,1004.6,VALID,0,VALID,86.3437,VALID,0,VALID,25.2806,VALID,260,VALID,0.522656,
2012-04-27, 01:55:04,VALID,1004.6,VALID,0,VALID,85.802,VALID,0,VALID,25.2611,VALID,276,VALID,0.271484,
2012-04-27, 01:56:04,VALID,1004.61,VALID,0,VALID,86.1148,VALID,0,VALID,25.2397,VALID,292,VALID,0.653906,
2012-04-27, 01:57:04,VALID,1004.6,VALID,0,VALID,86.6488,VALID,0,VALID,25.2416,VALID,302,VALID,0.255469,
2012-04-27, 01:58:04,VALID,1004.57,VALID,0,VALID,86.6565,VALID,0,VALID,25.2221,VALID,293,VALID,1.01641,
2012-04-27, 01:59:04,VALID,1004.55,VALID,0,VALID,86.6717,VALID,0,VALID,25.2027,VALID,286,VALID,0.599219,
2012-04-27, 02:00:04,VALID,1004.57,VALID,0,VALID,86.0919,VALID,0,VALID,25.1618,VALID,296,VALID,1.17734,
2012-04-27, 02:01:04,VALID,1004.55,VALID,0,VALID,86.4047,VALID,0,VALID,25.1229,VALID,294,VALID,1.19922,
2012-04-27, 02:02:04,VALID,1004.52,VALID,0,VALID,86.1758,VALID,0,VALID,25.1034,VALID,297,VALID,1.4957,
2012-04-27, 02:03:04,VALID,1004.53,VALID,0,VALID,85.8554,VALID,0,VALID,25.1034,VALID,287,VALID,1.66797,
2012-04-27, 02:04:04,VALID,1004.55,VALID,0,VALID,85.7486,VALID,0,VALID,25.0839,VALID,297,VALID,1.1418,
2012-04-27, 02:05:04,VALID,1004.53,VALID,0,VALID,86.0309,VALID,0,VALID,25.0858,VALID,282,VALID,0.716797,
2012-04-27, 02:06:04,VALID,1004.49,VALID,0,VALID,85.7944,VALID,0,VALID,25.0644,VALID,282,VALID,0.941406,
2012-04-27, 02:07:04,VALID,1004.48,VALID,0,VALID,86.3132,VALID,0,VALID,25.0858,VALID,275,VALID,0.719141,
2012-04-27, 02:08:04,VALID,1004.46,VALID,0,VALID,85.7562,VALID,0,VALID,25.0255,VALID,276,VALID,1.29062,
2012-04-27, 02:09:04,VALID,1004.43,VALID,0,VALID,85.6342,VALID,0,VALID,24.9847,VALID,300,VALID,0.560156,
2012-04-27, 02:10:04,VALID,1004.35,VALID,0,VALID,86.3894,VALID,0,VALID,25.0079,VALID,239,VALID,0.478125,
2012-04-27, 02:11:04,VALID,1004.33,VALID,0,VALID,86.3284,VALID,0,VALID,24.9671,VALID,355,VALID,0.449219,
2012-04-27, 02:12:04,VALID,1004.3,VALID,0,VALID,86.3971,VALID,0,VALID,24.969,VALID,282,VALID,0.83125,
2012-04-27, 02:13:04,VALID,1004.27,VALID,0,VALID,86.3284,VALID,0,VALID,24.93,VALID,308,VALID,0.924609,
2012-04-27, 02:14:04,VALID,1004.24,VALID,0,VALID,86.336,VALID,0,VALID,24.8911,VALID,283,VALID,2.03477,
2012-04-27, 02:15:04,VALID,1004.24,VALID,0,VALID,86.1377,VALID,0,VALID,24.8716,VALID,307,VALID,1.19023,
2012-04-27, 02:16:04,VALID,1004.23,VALID,0,VALID,86.0843,VALID,0,VALID,24.8308,VALID,4,VALID,1.30898,
2012-04-27, 02:17:04,VALID,1004.21,VALID,0,VALID,86.1377,VALID,0,VALID,24.8522,VALID,43,VALID,0.700781,
2012-04-27, 02:18:04,VALID,1004.24,VALID,0,VALID,86.2521,VALID,0,VALID,24.8327,VALID,313,VALID,0.558203,
2012-04-27, 02:19:04,VALID,1004.25,VALID,0,VALID,86.0156,VALID,0,VALID,24.8113,VALID,300,VALID,0.590234,
2012-04-27, 02:20:04,VALID,1004.29,VALID,0,VALID,86.0919,VALID,0,VALID,24.8132,VALID,303,VALID,0.953516,
2012-04-27, 02:21:04,VALID,1004.32,VALID,0,VALID,86.1682,VALID,0,VALID,24.8132,VALID,283,VALID,0.640234,
2012-04-27, 02:22:04,VALID,1004.36,VALID,0,VALID,86.0309,VALID,0,VALID,24.8132,VALID,281,VALID,0.775391,
2012-04-27, 02:23:04,VALID,1004.41,VALID,0,VALID,86.0995,VALID,0,VALID,24.7919,VALID,308,VALID,0.666797,
2012-04-27, 02:24:04,VALID,1004.44,VALID,0,VALID,86.0614,VALID,0,VALID,24.7937,VALID,349,VALID,1.09023,
2012-04-27, 02:25:04,VALID,1004.47,VALID,0,VALID,85.802,VALID,0,VALID,24.7937,VALID,312,VALID,1.41328,
2012-04-27, 02:26:04,VALID,1004.49,VALID,0,VALID,85.9012,VALID,0,VALID,24.7919,VALID,340,VALID,0.449219,
2012-04-27, 02:27:04,VALID,1004.53,VALID,0,VALID,86.1224,VALID,0,VALID,24.8132,VALID,310,VALID,0.670703,
2012-04-27, 02:28:04,VALID,1004.55,VALID,0,VALID,86.1758,VALID,0,VALID,24.7937,VALID,306,VALID,0.237891,
2012-04-27, 02:29:04,VALID,1004.57,VALID,0,VALID,86.2674,VALID,0,VALID,24.7937,VALID,272,VALID,0.791016,
2012-04-27, 02:30:04,VALID,1004.63,VALID,0,VALID,86.0538,VALID,0,VALID,24.7548,VALID,290,VALID,1.22812,
2012-04-27, 02:31:04,VALID,1004.63,VALID,0,VALID,86.1224,VALID,0,VALID,24.7335,VALID,285,VALID,0.633984,
2012-04-27, 02:32:04,VALID,1004.63,VALID,0,VALID,86.481,VALID,0,VALID,24.714,VALID,264,VALID,0.137109,
2012-04-27, 02:33:04,VALID,1004.63,VALID,0,VALID,85.8783,VALID,0,VALID,24.7159,VALID,282,VALID,1.98594,
2012-04-27, 02:34:04,VALID,1004.59,VALID,0,VALID,85.8631,VALID,0,VALID,24.714,VALID,308,VALID,1.28828,
2012-04-27, 02:35:04,VALID,1004.6,VALID,0,VALID,86.0461,VALID,0,VALID,24.714,VALID,249,VALID,0.976172,
2012-04-27, 02:36:04,VALID,1004.57,VALID,0,VALID,86.0156,VALID,0,VALID,24.7353,VALID,264,VALID,0.542969,
2012-04-27, 02:37:04,VALID,1004.59,VALID,0,VALID,86.6717,VALID,0,VALID,24.714,VALID,268,VALID,0.216406,
2012-04-27, 02:38:04,VALID,1004.58,VALID,0,VALID,86.8319,VALID,0,VALID,24.6945,VALID,291,VALID,1.01094,
2012-04-27, 02:39:04,VALID,1004.61,VALID,0,VALID,87.0379,VALID,0,VALID,24.7159,VALID,287,VALID,0.311328,
2012-04-27, 02:40:04,VALID,1004.63,VALID,0,VALID,87.015,VALID,0,VALID,24.6769,VALID,288,VALID,1.06562,
2012-04-27, 02:41:04,VALID,1004.65,VALID,0,VALID,86.9845,VALID,0,VALID,24.6574,VALID,249,VALID,0.665234,
2012-04-27, 02:42:04,VALID,1004.68,VALID,0,VALID,87.1218,VALID,0,VALID,24.5972,VALID,289,VALID,0.907422,
2012-04-27, 02:43:04,VALID,1004.69,VALID,0,VALID,87.3583,VALID,0,VALID,24.6185,VALID,279,VALID,0.878125,
2012-04-27, 02:44:04,VALID,1004.68,VALID,0,VALID,87.9076,VALID,0,VALID,24.5777,VALID,267,VALID,0.357031,
2012-04-27, 02:45:04,VALID,1004.7,VALID,0,VALID,87.9076,VALID,0,VALID,24.5601,VALID,307,VALID,0.390625,
2012-04-27, 02:46:04,VALID,1004.72,VALID,0,VALID,88.2051,VALID,0,VALID,24.5193,VALID,307,VALID,0.0246094,
2012-04-27, 02:47:04,VALID,1004.7,VALID,0,VALID,88.3119,VALID,0,VALID,24.5212,VALID,307,VALID,0.0253906,
2012-04-27, 02:48:04,VALID,1004.72,VALID,0,VALID,88.4111,VALID,0,VALID,24.5017,VALID,307,VALID,0.261719,
2012-04-27, 02:49:04,VALID,1004.7,VALID,0,VALID,88.4874,VALID,0,VALID,24.4822,VALID,307,VALID,0.472266,
2012-04-27, 02:50:04,VALID,1004.69,VALID,0,VALID,88.6018,VALID,0,VALID,24.4822,VALID,307,VALID,0.410937,
2012-04-27, 02:51:04,VALID,1004.7,VALID,0,VALID,88.8231,VALID,0,VALID,24.4433,VALID,307,VALID,0.208203,
2012-04-27, 02:52:04,VALID,1004.65,VALID,0,VALID,88.8536,VALID,0,VALID,24.4433,VALID,351,VALID,0.804688,
2012-04-27, 02:53:04,VALID,1004.63,VALID,0,VALID,88.7391,VALID,0,VALID,24.4043,VALID,344,VALID,0.199609,
2012-04-27, 02:54:04,VALID,1004.59,VALID,0,VALID,88.5713,VALID,0,VALID,24.383,VALID,345,VALID,0.269531,
2012-04-27, 02:55:04,VALID,1004.56,VALID,0,VALID,88.7162,VALID,0,VALID,24.3849,VALID,345,VALID,0.662109,
2012-04-27, 02:56:04,VALID,1004.54,VALID,0,VALID,88.7315,VALID,0,VALID,24.3441,VALID,345,VALID,0.724219,
2012-04-27, 02:57:04,VALID,1004.49,VALID,0,VALID,88.9299,VALID,0,VALID,24.3654,VALID,342,VALID,0.725391,
2012-04-27, 02:58:04,VALID,1004.48,VALID,0,VALID,89.3876,VALID,0,VALID,24.3265,VALID,343,VALID,0.834375,
2012-04-27, 02:59:04,VALID,1004.42,VALID,0,VALID,89.3723,VALID,0,VALID,24.2662,VALID,344,VALID,0.906641,
2012-04-27, 03:00:04,VALID,1004.42,VALID,0,VALID,89.6165,VALID,0,VALID,24.2486,VALID,350,VALID,0.624219,
2012-04-27, 03:01:04,VALID,1004.38,VALID,0,VALID,89.7996,VALID,0,VALID,24.2097,VALID,347,VALID,0.417969,
2012-04-27, 03:02:04,VALID,1004.38,VALID,0,VALID,90.0284,VALID,0,VALID,24.1902,VALID,349,VALID,0.173438,
2012-04-27, 03:03:04,VALID,1004.37,VALID,0,VALID,90.2344,VALID,0,VALID,24.1902,VALID,327,VALID,0.0960938,
2012-04-27, 03:04:04,VALID,1004.36,VALID,0,VALID,90.2649,VALID,0,VALID,24.1707,VALID,292,VALID,0.786328,
2012-04-27, 03:05:04,VALID,1004.37,VALID,0,VALID,90.1505,VALID,0,VALID,24.1513,VALID,285,VALID,0.882031,
2012-04-27, 03:06:04,VALID,1004.38,VALID,0,VALID,90.4022,VALID,0,VALID,24.13,VALID,280,VALID,0.722266,
2012-04-27, 03:07:04,VALID,1004.39,VALID,0,VALID,90.4099,VALID,0,VALID,24.1318,VALID,311,VALID,0.0734375,
2012-04-27, 03:08:04,VALID,1004.37,VALID,0.5,VALID,90.715,VALID,0,VALID,24.1123,VALID,282,VALID,0.0433594,
2012-04-27, 03:09:04,VALID,1004.41,VALID,0,VALID,90.5853,VALID,0,VALID,24.091,VALID,282,VALID,0.688672,
2012-04-27, 03:10:04,VALID,1004.46,VALID,0,VALID,90.6692,VALID,0,VALID,24.0734,VALID,264,VALID,0.339063,
2012-04-27, 03:11:04,VALID,1004.49,VALID,0,VALID,90.8447,VALID,0,VALID,24.0521,VALID,264,VALID,0.135156,
2012-04-27, 03:12:04,VALID,1004.51,VALID,0,VALID,90.8218,VALID,0.0815089,VALID,24.0345,VALID,264,VALID,0.00664063,
2012-04-27, 03:13:04,VALID,1004.56,VALID,0,VALID,90.9591,VALID,0,VALID,23.9937,VALID,264,VALID,0,
2012-04-27, 03:14:04,VALID,1004.58,VALID,0,VALID,91.0431,VALID,0,VALID,24.015,VALID,264,VALID,0.230859,
2012-04-27, 03:15:04,VALID,1004.61,VALID,0,VALID,91.0507,VALID,0,VALID,23.9955,VALID,264,VALID,0,
2012-04-27, 03:16:04,VALID,1004.65,VALID,0,VALID,91.0659,VALID,0,VALID,23.9548,VALID,264,VALID,0.00117188,
2012-04-27, 03:17:04,VALID,1004.7,VALID,0,VALID,91.1422,VALID,0,VALID,23.9761,VALID,264,VALID,0.115625,
2012-04-27, 03:18:04,VALID,1004.75,VALID,0,VALID,91.333,VALID,0,VALID,23.9761,VALID,264,VALID,0.147656,
2012-04-27, 03:19:04,VALID,1004.8,VALID,0,VALID,91.4474,VALID,0,VALID,23.9353,VALID,264,VALID,0.297266,
2012-04-27, 03:20:04,VALID,1004.85,VALID,0,VALID,91.6457,VALID,0,VALID,23.9371,VALID,264,VALID,0.374219,
2012-04-27, 03:21:04,VALID,1004.85,VALID,0,VALID,91.7525,VALID,0,VALID,23.8769,VALID,264,VALID,0.464063,
2012-04-27, 03:22:04,VALID,1004.89,VALID,0,VALID,91.928,VALID,0,VALID,23.8575,VALID,264,VALID,0.0691406,
2012-04-27, 03:23:04,VALID,1004.94,VALID,0,VALID,92.0577,VALID,0,VALID,23.8787,VALID,264,VALID,0,
2012-04-27, 03:24:04,VALID,1004.94,VALID,0,VALID,92.1874,VALID,0,VALID,23.838,VALID,264,VALID,0,
2012-04-27, 03:25:04,VALID,1004.97,VALID,0,VALID,92.2866,VALID,0,VALID,23.7973,VALID,264,VALID,0.525781,
2012-04-27, 03:26:04,VALID,1004.99,VALID,0,VALID,92.5231,VALID,0,VALID,23.7991,VALID,264,VALID,0.503516,
2012-04-27, 03:27:04,VALID,1004.97,VALID,0,VALID,92.7443,VALID,0,VALID,23.7991,VALID,264,VALID,0.302734,
2012-04-27, 03:28:04,VALID,1004.97,VALID,0,VALID,92.7519,VALID,0,VALID,23.7601,VALID,264,VALID,0.432422,
2012-04-27, 03:29:04,VALID,1004.96,VALID,0,VALID,92.8587,VALID,0,VALID,23.7407,VALID,264,VALID,0.269141,
2012-04-27, 03:30:04,VALID,1004.96,VALID,0,VALID,92.9274,VALID,0,VALID,23.7425,VALID,264,VALID,0.133203,
2012-04-27, 03:31:04,VALID,1004.97,VALID,0,VALID,93.0418,VALID,0,VALID,23.7017,VALID,264,VALID,0,
2012-04-27, 03:32:04,VALID,1004.95,VALID,0,VALID,93.1257,VALID,0,VALID,23.7035,VALID,264,VALID,0,
2012-04-27, 03:33:04,VALID,1004.94,VALID,0,VALID,93.2631,VALID,0,VALID,23.6823,VALID,264,VALID,0.485938,
2012-04-27, 03:34:04,VALID,1004.92,VALID,0,VALID,93.3088,VALID,0,VALID,23.7035,VALID,264,VALID,0.411719,
2012-04-27, 03:35:04,VALID,1004.91,VALID,0,VALID,93.4156,VALID,0,VALID,23.6823,VALID,264,VALID,0.342578,
2012-04-27, 03:36:04,VALID,1004.87,VALID,0,VALID,93.4767,VALID,0.0815089,VALID,23.6823,VALID,264,VALID,0.3375,
2012-04-27, 03:37:04,VALID,1004.86,VALID,0,VALID,93.5072,VALID,0,VALID,23.6628,VALID,264,VALID,0.49375,
2012-04-27, 03:38:04,VALID,1004.85,VALID,0,VALID,93.5606,VALID,0.0815089,VALID,23.6823,VALID,264,VALID,0.591016,
2012-04-27, 03:39:04,VALID,1004.85,VALID,0,VALID,93.6445,VALID,0,VALID,23.661,VALID,318,VALID,0.635547,
2012-04-27, 03:40:04,VALID,1004.82,VALID,0,VALID,93.6292,VALID,0,VALID,23.6628,VALID,334,VALID,0.605078,
2012-04-27, 03:41:04,VALID,1004.82,VALID,0,VALID,93.6979,VALID,0,VALID,23.6434,VALID,336,VALID,0.65625,
2012-04-27, 03:42:04,VALID,1004.81,VALID,0,VALID,93.7055,VALID,0,VALID,23.6628,VALID,339,VALID,0.665625,
2012-04-27, 03:43:04,VALID,1004.81,VALID,0,VALID,93.6903,VALID,0.0815089,VALID,23.6434,VALID,342,VALID,0.659766,
2012-04-27, 03:44:04,VALID,1004.83,VALID,0,VALID,93.6598,VALID,0,VALID,23.6239,VALID,344,VALID,0.51875,
2012-04-27, 03:45:04,VALID,1004.84,VALID,0,VALID,93.6903,VALID,0,VALID,23.6239,VALID,317,VALID,0.499219,
2012-04-27, 03:46:04,VALID,1004.85,VALID,0.5,VALID,93.6826,VALID,0,VALID,23.6452,VALID,350,VALID,0.685547,